Regional Weather Roundup
Issued by NWS

Home | Current Version | Previous Version | Graphics & Text | Print | Product List | Glossary On
Versions: 1 2 3 4 5 6 7 8 9 10 11 12 13 14 15 16 17 18 19 20 21 22 23 24 25 26 27 28 29 30 31 32 33 34 35 36 37 38 39 40 41 42 43 44 45 46 47 48 49 50
987
ASUS45 KSLC 082010
RWRUT

UTAH REGIONAL WEATHER ROUNDUP
NATIONAL WEATHER SERVICE SALT LAKE CITY UT
100 PM MST MON FEB 08 2016

UTZ001>011-023>025-082100-

NORTHERN UTAH

CITY           SKY/WX    TMP DP  RH WIND       PRES   REMARKS
BRIGHAM CITY   SUNNY     31  25  79 CALM      30.71F
DUGWAY         MOSUNNY   39  30  69 W2        30.69F
HILL AFB       MOSUNNY   36  23  59 NW2       30.67F
LOGAN          SUNNY     19  16  88 W3        30.70F FOG
OGDEN          MOSUNNY   34  26  72 NW6       30.67F WCI  29
PROVO AIRPORT  MOSUNNY   25  19  80 CALM      30.69F
SALT LAKE CITY NOT AVBL
VERNAL         CLOUDY    27  14  58 CALM      30.60F
WENDOVER       SUNNY     37  28  70 E5        30.69F WCI  34
HEBER CITY     SUNNY     28  18  64 CALM      30.64F
WEST JORDAN    SUNNY     36  25  64 S3        30.67F

$$

UTZ012>022-026-027-082100-

SOUTHERN/CENTRAL UTAH

CITY           SKY/WX    TMP DP  RH WIND       PRES   REMARKS
BLANDING       SUNNY     47  23  39 S7        30.55F
BRYCE CANYON   SUNNY     35  19  52 NE12      30.57F WCI  27
CEDAR CITY     SUNNY     34  19  54 CALM      30.58F
DELTA          SUNNY     21  20  96 SW5       30.67F WCI  14
HANKSVILLE     SUNNY     34  23  64 CALM      30.62F
MILFORD        SUNNY     26  19  74 N9        30.64F WCI  17
MOAB/CYNLANDS  SUNNY     28  23  81 NW6       30.58F WCI  22
PRICE          SUNNY     36  20  52 SE5       30.54F WCI  32
ST GEORGE      CLEAR     55  23  28 CALM      30.49F
KANAB          SUNNY     61  27  27 E14       30.50F

$$

REGIONAL REPORTS     COLORADO/ARIZONA

CITY           SKY/WX    TMP DP  RH WIND       PRES   REMARKS
CRAIG, CO      CLOUDY    19  11  70 CALM      30.57F
GRAND JUNCTION SUNNY     34  22  61 E6        30.57F WCI  29
RIFLE          CLOUDY    36  19  50 N3        30.56F
MONTROSE       SUNNY     37  20  50 N5        30.57F WCI  33
CORTEZ         SUNNY     47  24  40 W13       30.44F
PAGE, AZ       SUNNY     45  26  47 N6        30.53F
GRAND CANYON   SUNNY     52  19  27 NE18      30.51F
KINGMAN        SUNNY     64  22  20 N15       30.36F
FLAGSTAFF      SUNNY     49  17  28 E20G25    30.47F

$$

REGIONAL REPORTS    NEVADA/IDAHO/WYOMING

CITY           SKY/WX    TMP DP  RH WIND       PRES   REMARKS
LAS VEGAS, NV  SUNNY     65  23  20 NE10      30.38F
ELY            SUNNY     33  22  63 CALM      30.64F
ELKO           SUNNY     27  17  66 E6        30.68F WCI  20
POCATELLO, ID  CLOUDY    29  26  89 VRB3      30.70F
BURLEY         CLOUDY    31  28  89 NE12      30.68F WCI  22
EVANSTON, WY   CLOUDY    25  16  68 CALM      30.61F
ROCK SPRINGS   CLOUDY    35  24  64 SW13      30.52F WCI  26
KEMMERER       CLOUDY    37  25  60 W12       30.57F WCI  30

$$




USA.gov is the U.S. government's official web portal to all federal, state and local government web resources and services.